owner,sensor,date,latitude,longitude,vertical_datum,wind_speed,wind_to_direction,wind_speed_of_gust,qcFlag 
TABS,ioos:station:wmo:42043:1,2012-06-01T00:00:00Z,28.9818,-94.9186,4.0,5.832400878,163.7714796,7.78,'11111222,11111222,11111222' 
TABS,ioos:station:wmo:42043:1,2012-06-01T00:30:00Z,28.9818,-94.9186,4.0,5.892070943,170.426005,7.32,'11111222,11111222,11111222' 
TABS,ioos:station:wmo:42043:1,2012-06-01T01:00:00Z,28.9818,-94.9186,4.0,4.202772894,191.390325,5.29,'11111222,11111222,11111222' 
TABS,ioos:station:wmo:42043:1,2012-06-01T01:30:00Z,28.9818,-94.9186,4.0,4.166629333,214.8344341,5.63,'11111222,11111222,11111222' 
TABS,ioos:station:wmo:42043:1,2012-06-01T02:00:00Z,28.9818,-94.9186,4.0,3.628015987,226.0051889,4.7,'11111222,11111222,11111222' 
TABS,ioos:station:wmo:42043:1,2012-06-01T02:30:00Z,28.9818,-94.9186,4.0,4.322453007,241.5377123,5.28,'11111222,11111222,11111222' 
TABS,ioos:station:wmo:42043:1,2012-06-01T03:00:00Z,28.9818,-94.9186,4.0,4.102316419,239.3716545,5.34,'11111222,11111222,11111222' 
TABS,ioos:station:wmo:42043:1,2012-06-01T03:30:00Z,28.9818,-94.9186,4.0,4.618679465,237.3766538,5.82,'11111222,11111222,11111222' 
TABS,ioos:station:wmo:42043:1,2012-06-01T04:00:00Z,28.9818,-94.9186,4.0,2.94516553,248.4876461,3.81,'11111222,11111222,11111222' 
TABS,ioos:station:wmo:42043:1,2012-06-01T04:30:00Z,28.9818,-94.9186,4.0,3.279817068,276.301594,4.07,'11111222,11111222,11111222' 
TABS,ioos:station:wmo:42043:1,2012-06-01T05:00:00Z,28.9818,-94.9186,4.0,3.626265296,302.156042,4.85,'11111222,11111222,11111222' 
TABS,ioos:station:wmo:42043:1,2012-06-01T05:30:00Z,28.9818,-94.9186,4.0,3.534246737,321.0868889,4.44,'11111222,11111222,11111222' 
TABS,ioos:station:wmo:42043:1,2012-06-01T06:00:00Z,28.9818,-94.9186,4.0,3.467160221,304.423333,4.48,'11111222,11111222,11111222' 
TABS,ioos:station:wmo:42043:1,2012-06-01T06:30:00Z,28.9818,-94.9186,4.0,3.293417678,302.0975124,4.17,'11111222,11111222,11111222' 
TABS,ioos:station:wmo:42043:1,2012-06-01T07:00:00Z,28.9818,-94.9186,4.0,3.544925951,301.2685928,4.48,'11111222,11111222,11111222' 
TABS,ioos:station:wmo:42043:1,2012-06-01T07:30:00Z,28.9818,-94.9186,4.0,3.92458915,305.8770199,5.14,'11111222,11111222,11111222' 
TABS,ioos:station:wmo:42043:1,2012-06-01T08:00:00Z,28.9818,-94.9186,4.0,3.542781393,320.152898,4.49,'11111222,11111222,11111222' 
TABS,ioos:station:wmo:42043:1,2012-06-01T08:30:00Z,28.9818,-94.9186,4.0,3.321219655,305.3169965,4.2,'11111222,11111222,11111222' 
TABS,ioos:station:wmo:42043:1,2012-06-01T09:00:00Z,28.9818,-94.9186,4.0,3.988483421,314.1872451,5.1,'11111222,11111222,11111222' 
TABS,ioos:station:wmo:42043:1,2012-06-01T09:30:00Z,28.9818,-94.9186,4.0,3.417206461,325.6122422,4.54,'11111222,11111222,11111222' 
TABS,ioos:station:wmo:42043:1,2012-06-01T10:00:00Z,28.9818,-94.9186,4.0,3.015990716,356.387913,4.74,'11111222,11111222,11111222' 
TABS,ioos:station:wmo:42043:1,2012-06-01T10:30:00Z,28.9818,-94.9186,4.0,4.571925196,12.12077665,6.09,'11111222,11111222,11111222' 
TABS,ioos:station:wmo:42043:1,2012-06-01T11:00:00Z,28.9818,-94.9186,4.0,4.130205806,11.30969557,5.46,'11111222,11111222,11111222' 
TABS,ioos:station:wmo:42043:1,2012-06-01T11:30:00Z,28.9818,-94.9186,4.0,4.412493626,15.10682214,5.33,'11111222,11111222,11111222' 
TABS,ioos:station:wmo:42043:1,2012-06-01T12:00:00Z,28.9818,-94.9186,4.0,4.331801011,13.61896198,5.29,'11111222,11111222,11111222' 
TABS,ioos:station:wmo:42043:1,2012-06-01T12:30:00Z,28.9818,-94.9186,4.0,4.497510422,19.48217825,5.71,'11111222,11111222,11111222' 
TABS,ioos:station:wmo:42043:1,2012-06-01T13:00:00Z,28.9818,-94.9186,4.0,3.903664945,12.57632758,5.58,'11111222,11111222,11111222' 
TABS,ioos:station:wmo:42043:1,2012-06-01T13:30:00Z,28.9818,-94.9186,4.0,5.531554935,28.7424473,7.37,'11111222,11111222,11111222' 
TABS,ioos:station:wmo:42043:1,2012-06-01T14:00:00Z,28.9818,-94.9186,4.0,6.116289725,30.12803833,7.6,'11111222,11111222,11111222' 
TABS,ioos:station:wmo:42043:1,2012-06-01T14:30:00Z,28.9818,-94.9186,4.0,5.919062426,31.81014571,8.08,'11111222,11111222,11111222' 
TABS,ioos:station:wmo:42043:1,2012-06-01T15:00:00Z,28.9818,-94.9186,4.0,6.55537947,30.1240371,8.2,'11111222,11111222,11111222' 
TABS,ioos:station:wmo:42043:1,2012-06-01T15:30:00Z,28.9818,-94.9186,4.0,5.807417671,29.38972036,7.39,'11111222,11111222,11111222' 
TABS,ioos:station:wmo:42043:1,2012-06-01T16:00:00Z,28.9818,-94.9186,4.0,6.157174677,33.74139597,7.95,'11111222,11111222,11111222' 
TABS,ioos:station:wmo:42043:1,2012-06-01T16:30:00Z,28.9818,-94.9186,4.0,5.484824519,38.70845013,6.84,'11111222,11111222,11111222' 
TABS,ioos:station:wmo:42043:1,2012-06-01T17:00:00Z,28.9818,-94.9186,4.0,5.352476063,42.1221662,7.18,'11111222,11111222,11111222' 
TABS,ioos:station:wmo:42043:1,2012-06-01T17:30:00Z,28.9818,-94.9186,4.0,4.520199111,48.58719214,5.74,'11111222,11111222,11111222' 
TABS,ioos:station:wmo:42043:1,2012-06-01T18:00:00Z,28.9818,-94.9186,4.0,4.45785823,59.9837549,5.67,'11111222,11111222,11111222' 
TABS,ioos:station:wmo:42043:1,2012-06-01T18:30:00Z,28.9818,-94.9186,4.0,4.180251189,65.70314568,5.53,'11111222,11111222,11111222' 
TABS,ioos:station:wmo:42043:1,2012-06-01T19:00:00Z,28.9818,-94.9186,4.0,3.624058498,66.75952424,5.01,'11111222,11111222,11111222' 
TABS,ioos:station:wmo:42043:1,2012-06-01T19:30:00Z,28.9818,-94.9186,4.0,3.693805626,70.87794338,4.63,'11111222,11111222,11111222' 
TABS,ioos:station:wmo:42043:1,2012-06-01T20:00:00Z,28.9818,-94.9186,4.0,3.616144356,81.89190311,4.8,'11111222,11111222,11111222' 
TABS,ioos:station:wmo:42043:1,2012-06-01T20:30:00Z,28.9818,-94.9186,4.0,3.405994715,97.08369035,4.46,'11111222,11111222,11111222' 
TABS,ioos:station:wmo:42043:1,2012-06-01T21:00:00Z,28.9818,-94.9186,4.0,2.771804466,87.93204211,3.65,'11111222,11111222,11111222' 
TABS,ioos:station:wmo:42043:1,2012-06-01T21:30:00Z,28.9818,-94.9186,4.0,2.427920921,101.4028885,3.22,'11111222,11111222,11111222' 
TABS,ioos:station:wmo:42043:1,2012-06-01T22:00:00Z,28.9818,-94.9186,4.0,1.956859729,121.4160333,2.57,'11111222,11111222,11111222' 
TABS,ioos:station:wmo:42043:1,2012-06-01T22:30:00Z,28.9818,-94.9186,4.0,2.044627105,112.4262304,2.8,'11111222,11111222,11111222' 
TABS,ioos:station:wmo:42043:1,2012-06-01T23:00:00Z,28.9818,-94.9186,4.0,2.641685068,131.7779573,3.34,'11111222,11111222,11111222' 
TABS,ioos:station:wmo:42043:1,2012-06-01T23:30:00Z,28.9818,-94.9186,4.0,2.268501708,114.7578633,2.94,'11111222,11111222,11111222' 
TABS,ioos:station:wmo:42043:1,2012-06-02T00:00:00Z,28.9818,-94.9186,4.0,3.188494943,111.334615,4.03,'11111222,11111222,11111222' 
TABS,ioos:station:wmo:42043:1,2012-06-02T00:30:00Z,28.9818,-94.9186,4.0,3.482814953,103.9568327,4.31,'11111222,11111222,11111222' 
TABS,ioos:station:wmo:42043:1,2012-06-02T01:00:00Z,28.9818,-94.9186,4.0,3.573149871,105.0867396,4.36,'11111222,11111222,11111222' 
TABS,ioos:station:wmo:42043:1,2012-06-02T01:30:00Z,28.9818,-94.9186,4.0,3.77327444,120.2349271,4.68,'11111222,11111222,11111222' 
TABS,ioos:station:wmo:42043:1,2012-06-02T02:00:00Z,28.9818,-94.9186,4.0,4.060788101,133.2041767,5.07,'11111222,11111222,11111222' 
TABS,ioos:station:wmo:42043:1,2012-06-02T02:30:00Z,28.9818,-94.9186,4.0,4.223564845,133.1774515,5.18,'11111222,11111222,11111222' 
TABS,ioos:station:wmo:42043:1,2012-06-02T03:00:00Z,28.9818,-94.9186,4.0,3.729074952,139.1323663,4.57,'11111222,11111222,11111222' 
TABS,ioos:station:wmo:42043:1,2012-06-02T03:30:00Z,28.9818,-94.9186,4.0,4.188615523,141.1055006,5.3,'11111222,11111222,11111222' 
TABS,ioos:station:wmo:42043:1,2012-06-02T04:00:00Z,28.9818,-94.9186,4.0,4.514255199,143.7396342,5.86,'11111222,11111222,11111222' 
TABS,ioos:station:wmo:42043:1,2012-06-02T04:30:00Z,28.9818,-94.9186,4.0,5.263078947,157.430643,6.48,'11111222,11111222,11111222' 
TABS,ioos:station:wmo:42043:1,2012-06-02T05:00:00Z,28.9818,-94.9186,4.0,5.420415113,175.0259028,6.45,'11111222,11111222,11111222' 
TABS,ioos:station:wmo:42043:1,2012-06-02T05:30:00Z,28.9818,-94.9186,4.0,4.820041494,179.7624706,6.13,'11111222,11111222,11111222' 
TABS,ioos:station:wmo:42043:1,2012-06-02T06:00:00Z,28.9818,-94.9186,4.0,4.921463197,178.6030327,5.85,'11111222,11111222,11111222' 
TABS,ioos:station:wmo:42043:1,2012-06-02T06:30:00Z,28.9818,-94.9186,4.0,4.019763675,183.994421,5.13,'11111222,11111222,11111222' 
TABS,ioos:station:wmo:42043:1,2012-06-02T07:00:00Z,28.9818,-94.9186,4.0,3.610498581,179.0480159,4.5,'11111222,11111222,11111222' 
TABS,ioos:station:wmo:42043:1,2012-06-02T07:30:00Z,28.9818,-94.9186,4.0,3.533185531,177.5670151,4.51,'11111222,11111222,11111222' 
TABS,ioos:station:wmo:42043:1,2012-06-02T08:00:00Z,28.9818,-94.9186,4.0,5.054789808,177.5057398,6.38,'11111222,11111222,11111222' 
TABS,ioos:station:wmo:42043:1,2012-06-02T08:30:00Z,28.9818,-94.9186,4.0,5.357854048,170.8719407,6.55,'11111222,11111222,11111222' 
TABS,ioos:station:wmo:42043:1,2012-06-02T09:00:00Z,28.9818,-94.9186,4.0,4.823297627,159.2356642,6.0,'11111222,11111222,11111222' 
TABS,ioos:station:wmo:42043:1,2012-06-02T09:30:00Z,28.9818,-94.9186,4.0,4.646557866,162.8521927,5.86,'11111222,11111222,11111222' 
TABS,ioos:station:wmo:42043:1,2012-06-02T10:00:00Z,28.9818,-94.9186,4.0,4.651505133,154.2615436,6.04,'11111222,11111222,11111222' 
TABS,ioos:station:wmo:42043:1,2012-06-02T10:30:00Z,28.9818,-94.9186,4.0,4.952130854,161.6384792,6.09,'11111222,11111222,11111222' 
TABS,ioos:station:wmo:42043:1,2012-06-02T11:00:00Z,28.9818,-94.9186,4.0,5.038462067,169.2478544,6.65,'11111222,11111222,11111222' 
TABS,ioos:station:wmo:42043:1,2012-06-02T11:30:00Z,28.9818,-94.9186,4.0,4.760514678,179.1576882,6.63,'11111222,11111222,11111222' 
TABS,ioos:station:wmo:42043:1,2012-06-02T12:00:00Z,28.9818,-94.9186,4.0,5.03035784,180.6836251,6.64,'11111222,11111222,11111222' 
TABS,ioos:station:wmo:42043:1,2012-06-02T12:30:00Z,28.9818,-94.9186,4.0,3.977247792,174.6623266,5.52,'11111222,11111222,11111222' 
TABS,ioos:station:wmo:42043:1,2012-06-02T13:00:00Z,28.9818,-94.9186,4.0,3.424864961,161.0891746,4.38,'11111222,11111222,11111222' 
TABS,ioos:station:wmo:42043:1,2012-06-02T13:30:00Z,28.9818,-94.9186,4.0,2.890069203,156.9838951,4.15,'11111222,11111222,11111222' 
TABS,ioos:station:wmo:42043:1,2012-06-02T14:00:00Z,28.9818,-94.9186,4.0,3.823741623,153.100163,4.82,'11111222,11111222,11111222' 
TABS,ioos:station:wmo:42043:1,2012-06-02T14:30:00Z,28.9818,-94.9186,4.0,3.902883549,182.2028035,4.98,'11111222,11111222,11111222' 
TABS,ioos:station:wmo:42043:1,2012-06-02T15:00:00Z,28.9818,-94.9186,4.0,3.96,180.0002105,4.98,'11111222,11111222,11111222' 
TABS,ioos:station:wmo:42043:1,2012-06-02T15:30:00Z,28.9818,-94.9186,4.0,3.887647103,185.461489,5.08,'11111222,11111222,11111222' 
TABS,ioos:station:wmo:42043:1,2012-06-02T16:00:00Z,28.9818,-94.9186,4.0,3.466366974,183.4734312,4.38,'11111222,11111222,11111222' 
TABS,ioos:station:wmo:42043:1,2012-06-02T16:30:00Z,28.9818,-94.9186,4.0,3.498242416,183.9341188,4.53,'11111222,11111222,11111222' 
TABS,ioos:station:wmo:42043:1,2012-06-02T17:00:00Z,28.9818,-94.9186,4.0,3.375203698,174.5598911,4.43,'11111222,11111222,11111222' 
TABS,ioos:station:wmo:42043:1,2012-06-02T17:30:00Z,28.9818,-94.9186,4.0,2.938741227,188.020004,3.98,'11111222,11111222,11111222' 
TABS,ioos:station:wmo:42043:1,2012-06-02T18:00:00Z,28.9818,-94.9186,4.0,2.159282288,174.6856772,3.32,'11111222,11111222,11111222' 
TABS,ioos:station:wmo:42043:1,2012-06-02T18:30:00Z,28.9818,-94.9186,4.0,2.979463039,186.5527498,4.16,'11111222,11111222,11111222' 
TABS,ioos:station:wmo:42043:1,2012-06-02T19:00:00Z,28.9818,-94.9186,4.0,3.085854825,183.5302089,4.01,'11111222,11111222,11111222' 
TABS,ioos:station:wmo:42043:1,2012-06-02T19:30:00Z,28.9818,-94.9186,4.0,3.580502758,179.0400381,4.81,'11111222,11111222,11111222' 
TABS,ioos:station:wmo:42043:1,2012-06-02T20:00:00Z,28.9818,-94.9186,4.0,3.700486455,179.0711733,4.64,'11111222,11111222,11111222' 
TABS,ioos:station:wmo:42043:1,2012-06-02T20:30:00Z,28.9818,-94.9186,4.0,3.595469371,170.878484,4.82,'11111222,11111222,11111222' 
TABS,ioos:station:wmo:42043:1,2012-06-02T21:00:00Z,28.9818,-94.9186,4.0,3.196623218,165.8770566,4.18,'11111222,11111222,11111222' 
TABS,ioos:station:wmo:42043:1,2012-06-02T21:30:00Z,28.9818,-94.9186,4.0,3.624982759,164.3153835,5.23,'11111222,11111222,11111222' 
TABS,ioos:station:wmo:42043:1,2012-06-02T22:00:00Z,28.9818,-94.9186,4.0,3.665801413,162.7021701,4.72,'11111222,11111222,11111222' 
TABS,ioos:station:wmo:42043:1,2012-06-02T22:30:00Z,28.9818,-94.9186,4.0,4.240011792,157.2452674,5.67,'11111222,11111222,11111222' 
TABS,ioos:station:wmo:42043:1,2012-06-02T23:00:00Z,28.9818,-94.9186,4.0,4.39458758,155.5347326,5.95,'11111222,11111222,11111222' 
TABS,ioos:station:wmo:42043:1,2012-06-02T23:30:00Z,28.9818,-94.9186,4.0,4.602140806,154.1033619,5.99,'11111222,11111222,11111222' 
TABS,ioos:station:wmo:42043:1,2012-06-03T00:00:00Z,28.9818,-94.9186,4.0,4.903060269,154.8986604,6.2,'11111222,11111222,11111222' 
TABS,ioos:station:wmo:42043:1,2012-06-03T00:30:00Z,28.9818,-94.9186,4.0,5.282508874,152.3680254,6.54,'11111222,11111222,11111222' 
TABS,ioos:station:wmo:42043:1,2012-06-03T01:00:00Z,28.9818,-94.9186,4.0,5.573149917,152.4236859,7.05,'11111222,11111222,11111222' 
TABS,ioos:station:wmo:42043:1,2012-06-03T01:30:00Z,28.9818,-94.9186,4.0,6.225624467,154.093763,7.94,'11111222,11111222,11111222' 
TABS,ioos:station:wmo:42043:1,2012-06-03T02:00:00Z,28.9818,-94.9186,4.0,6.537805442,157.0433294,7.93,'11111222,11111222,11111222' 
TABS,ioos:station:wmo:42043:1,2012-06-03T02:30:00Z,28.9818,-94.9186,4.0,6.456756152,158.5613735,8.23,'11111222,11111222,11111222' 
TABS,ioos:station:wmo:42043:1,2012-06-03T03:00:00Z,28.9818,-94.9186,4.0,7.043294684,166.2007573,8.54,'11111222,11111222,11111222' 
TABS,ioos:station:wmo:42043:1,2012-06-03T03:30:00Z,28.9818,-94.9186,4.0,7.225316602,164.4251988,9.06,'11111222,11111222,11111222' 
TABS,ioos:station:wmo:42043:1,2012-06-03T04:00:00Z,28.9818,-94.9186,4.0,8.01953864,173.6284744,9.59,'11111222,11111222,11111222' 
TABS,ioos:station:wmo:42043:1,2012-06-03T04:30:00Z,28.9818,-94.9186,4.0,7.684041905,172.5977522,9.19,'11111222,11111222,11111222' 
TABS,ioos:station:wmo:42043:1,2012-06-03T05:00:00Z,28.9818,-94.9186,4.0,7.568599606,172.8658211,9.14,'11111222,11111222,11111222' 
TABS,ioos:station:wmo:42043:1,2012-06-03T05:30:00Z,28.9818,-94.9186,4.0,7.633950485,172.0187261,9.05,'11111222,11111222,11111222' 
TABS,ioos:station:wmo:42043:1,2012-06-03T06:00:00Z,28.9818,-94.9186,4.0,7.053261657,173.6510629,8.48,'11111222,11111222,11111222' 
TABS,ioos:station:wmo:42043:1,2012-06-03T06:30:00Z,28.9818,-94.9186,4.0,7.437586974,175.063849,8.7,'11111222,11111222,11111222' 
TABS,ioos:station:wmo:42043:1,2012-06-03T07:00:00Z,28.9818,-94.9186,4.0,7.732541626,173.9873401,9.4,'11111222,11111222,11111222' 
TABS,ioos:station:wmo:42043:1,2012-06-03T07:30:00Z,28.9818,-94.9186,4.0,7.410330627,180.5414488,9.43,'11111222,11111222,11111222' 
TABS,ioos:station:wmo:42043:1,2012-06-03T08:00:00Z,28.9818,-94.9186,4.0,7.271595423,175.5833858,8.85,'11111222,11111222,11111222' 
TABS,ioos:station:wmo:42043:1,2012-06-03T08:30:00Z,28.9818,-94.9186,4.0,7.210110956,179.6823461,9.18,'11111222,11111222,11111222' 
TABS,ioos:station:wmo:42043:1,2012-06-03T09:00:00Z,28.9818,-94.9186,4.0,6.742469874,175.3212636,8.62,'11111222,11111222,11111222' 
TABS,ioos:station:wmo:42043:1,2012-06-03T09:30:00Z,28.9818,-94.9186,4.0,6.608940914,175.6613576,8.44,'11111222,11111222,11111222' 
TABS,ioos:station:wmo:42043:1,2012-06-03T10:00:00Z,28.9818,-94.9186,4.0,6.423091156,169.2326287,8.37,'11111222,11111222,11111222' 
TABS,ioos:station:wmo:42043:1,2012-06-03T10:30:00Z,28.9818,-94.9186,4.0,6.517008516,166.2412003,8.45,'11111222,11111222,11111222' 
TABS,ioos:station:wmo:42043:1,2012-06-03T11:00:00Z,28.9818,-94.9186,4.0,6.16344871,166.7756902,8.25,'11111222,11111222,11111222' 
TABS,ioos:station:wmo:42043:1,2012-06-03T11:30:00Z,28.9818,-94.9186,4.0,5.983619306,163.5944973,7.56,'11111222,11111222,11111222' 
TABS,ioos:station:wmo:42043:1,2012-06-03T12:00:00Z,28.9818,-94.9186,4.0,6.039768207,166.7923129,8.01,'11111222,11111222,11111222' 
TABS,ioos:station:wmo:42043:1,2012-06-03T12:30:00Z,28.9818,-94.9186,4.0,6.342531041,165.4819828,7.51,'11111222,11111222,11111222' 
TABS,ioos:station:wmo:42043:1,2012-06-03T13:00:00Z,28.9818,-94.9186,4.0,5.963975184,157.0035074,7.61,'11111222,11111222,11111222' 
TABS,ioos:station:wmo:42043:1,2012-06-03T13:30:00Z,28.9818,-94.9186,4.0,5.799456871,159.7217279,7.24,'11111222,11111222,11111222' 
TABS,ioos:station:wmo:42043:1,2012-06-03T14:00:00Z,28.9818,-94.9186,4.0,6.299365047,158.975809,7.99,'11111222,11111222,11111222' 
TABS,ioos:station:wmo:42043:1,2012-06-03T14:30:00Z,28.9818,-94.9186,4.0,6.77552212,159.3452401,8.6,'11111222,11111222,11111222' 
TABS,ioos:station:wmo:42043:1,2012-06-03T15:00:00Z,28.9818,-94.9186,4.0,5.671728132,167.164631,7.01,'11111222,11111222,11111222' 
TABS,ioos:station:wmo:42043:1,2012-06-03T15:30:00Z,28.9818,-94.9186,4.0,5.637277712,164.0408909,7.27,'11111222,11111222,11111222' 
TABS,ioos:station:wmo:42043:1,2012-06-03T16:00:00Z,28.9818,-94.9186,4.0,5.84405681,161.1312551,7.63,'11111222,11111222,11111222' 
TABS,ioos:station:wmo:42043:1,2012-06-03T16:30:00Z,28.9818,-94.9186,4.0,5.836060315,165.1067723,7.23,'11111222,11111222,11111222' 
TABS,ioos:station:wmo:42043:1,2012-06-03T17:00:00Z,28.9818,-94.9186,4.0,5.878817908,161.9659671,8.02,'11111222,11111222,11111222' 
TABS,ioos:station:wmo:42043:1,2012-06-03T17:30:00Z,28.9818,-94.9186,4.0,6.389053138,162.6997237,8.32,'11111222,11111222,11111222' 
TABS,ioos:station:wmo:42043:1,2012-06-03T18:00:00Z,28.9818,-94.9186,4.0,6.331792795,162.5382641,7.87,'11111222,11111222,11111222' 
TABS,ioos:station:wmo:42043:1,2012-06-03T18:30:00Z,28.9818,-94.9186,4.0,6.064321891,169.3573646,8.31,'11111222,11111222,11111222' 
TABS,ioos:station:wmo:42043:1,2012-06-03T19:00:00Z,28.9818,-94.9186,4.0,6.234260181,170.0241974,7.74,'11111222,11111222,11111222' 
TABS,ioos:station:wmo:42043:1,2012-06-03T19:30:00Z,28.9818,-94.9186,4.0,6.11478536,174.8397266,7.94,'11111222,11111222,11111222' 
TABS,ioos:station:wmo:42043:1,2012-06-03T20:00:00Z,28.9818,-94.9186,4.0,6.161980201,175.1593621,8.04,'11111222,11111222,11111222' 
TABS,ioos:station:wmo:42043:1,2012-06-03T20:30:00Z,28.9818,-94.9186,4.0,6.194198899,173.9766937,8.02,'11111222,11111222,11111222' 
TABS,ioos:station:wmo:42043:1,2012-06-03T21:00:00Z,28.9818,-94.9186,4.0,6.047950066,177.0621179,7.54,'11111222,11111222,11111222' 
TABS,ioos:station:wmo:42043:1,2012-06-03T21:30:00Z,28.9818,-94.9186,4.0,5.685534276,175.7638256,7.16,'11111222,11111222,11111222' 
TABS,ioos:station:wmo:42043:1,2012-06-03T22:00:00Z,28.9818,-94.9186,4.0,5.241087673,173.7566127,6.73,'11111222,11111222,11111222' 
TABS,ioos:station:wmo:42043:1,2012-06-03T22:30:00Z,28.9818,-94.9186,4.0,5.304573498,162.8975215,6.8,'11111222,11111222,11111222' 
TABS,ioos:station:wmo:42043:1,2012-06-03T23:00:00Z,28.9818,-94.9186,4.0,4.673884894,161.7978974,6.12,'11111222,11111222,11111222' 
TABS,ioos:station:wmo:42043:1,2012-06-03T23:30:00Z,28.9818,-94.9186,4.0,4.582597517,156.7360059,5.84,'11111222,11111222,11111222' 
TABS,ioos:station:wmo:42043:1,2012-06-04T00:00:00Z,28.9818,-94.9186,4.0,4.033720367,165.206074,5.16,'11111222,11111222,11111222' 
TABS,ioos:station:wmo:42043:1,2012-06-04T00:30:00Z,28.9818,-94.9186,4.0,4.248905741,158.7497546,5.41,'11111222,11111222,11111222' 
TABS,ioos:station:wmo:42043:1,2012-06-04T01:00:00Z,28.9818,-94.9186,4.0,3.873034986,153.9644964,4.9,'11111222,11111222,11111222' 
TABS,ioos:station:wmo:42043:1,2012-06-04T01:30:00Z,28.9818,-94.9186,4.0,4.143066497,144.4304633,5.13,'11111222,11111222,11111222' 
TABS,ioos:station:wmo:42043:1,2012-06-04T02:00:00Z,28.9818,-94.9186,4.0,4.483859944,133.915985,5.74,'11111222,11111222,11111222' 
TABS,ioos:station:wmo:42043:1,2012-06-04T02:30:00Z,28.9818,-94.9186,4.0,4.797707786,128.3990276,6.35,'11111222,11111222,11111222' 
TABS,ioos:station:wmo:42043:1,2012-06-04T03:00:00Z,28.9818,-94.9186,4.0,5.344529914,129.229393,6.82,'11111222,11111222,11111222' 
TABS,ioos:station:wmo:42043:1,2012-06-04T03:30:00Z,28.9818,-94.9186,4.0,6.096900852,130.8768333,7.84,'11111222,11111222,11111222' 
TABS,ioos:station:wmo:42043:1,2012-06-04T04:00:00Z,28.9818,-94.9186,4.0,6.0251556,137.8929352,7.87,'11111222,11111222,11111222' 
TABS,ioos:station:wmo:42043:1,2012-06-04T04:30:00Z,28.9818,-94.9186,4.0,6.020664415,150.1137534,8.3,'11111222,11111222,11111222' 
TABS,ioos:station:wmo:42043:1,2012-06-04T05:00:00Z,28.9818,-94.9186,4.0,6.994118958,155.4139384,9.08,'11111222,11111222,11111222' 
TABS,ioos:station:wmo:42043:1,2012-06-04T05:30:00Z,28.9818,-94.9186,4.0,7.723943293,167.1335035,9.4,'11111222,11111222,11111222' 
TABS,ioos:station:wmo:42043:1,2012-06-04T06:00:00Z,28.9818,-94.9186,4.0,7.986845435,171.0686288,10.58,'11111222,11111222,11111222' 
TABS,ioos:station:wmo:42043:1,2012-06-04T06:30:00Z,28.9818,-94.9186,4.0,8.442795745,175.7888915,10.67,'11111222,11111222,11111222' 
TABS,ioos:station:wmo:42043:1,2012-06-04T07:00:00Z,28.9818,-94.9186,4.0,7.552304284,175.5956968,9.83,'11111222,11111222,11111222' 
TABS,ioos:station:wmo:42043:1,2012-06-04T07:30:00Z,28.9818,-94.9186,4.0,6.822118439,178.5723156,8.74,'11111222,11111222,11111222' 
TABS,ioos:station:wmo:42043:1,2012-06-04T08:00:00Z,28.9818,-94.9186,4.0,6.579855622,176.8638594,8.46,'11111222,11111222,11111222' 
TABS,ioos:station:wmo:42043:1,2012-06-04T08:30:00Z,28.9818,-94.9186,4.0,6.858002625,186.7832435,8.63,'11111222,11111222,11111222' 
TABS,ioos:station:wmo:42043:1,2012-06-04T09:00:00Z,28.9818,-94.9186,4.0,6.377875822,187.0249262,7.85,'11111222,11111222,11111222' 
TABS,ioos:station:wmo:42043:1,2012-06-04T09:30:00Z,28.9818,-94.9186,4.0,6.184965643,183.986816,8.36,'11111222,11111222,11111222' 
TABS,ioos:station:wmo:42043:1,2012-06-04T10:00:00Z,28.9818,-94.9186,4.0,5.58233822,186.1703711,6.86,'11111222,11111222,11111222' 
TABS,ioos:station:wmo:42043:1,2012-06-04T10:30:00Z,28.9818,-94.9186,4.0,4.8120266,175.9485361,6.2,'11111222,11111222,11111222' 
TABS,ioos:station:wmo:42043:1,2012-06-04T11:00:00Z,28.9818,-94.9186,4.0,5.261178575,188.7463523,6.99,'11111222,11111222,11111222' 
TABS,ioos:station:wmo:42043:1,2012-06-04T11:30:00Z,28.9818,-94.9186,4.0,4.642843956,185.6862315,5.81,'11111222,11111222,11111222' 
TABS,ioos:station:wmo:42043:1,2012-06-04T12:00:00Z,28.9818,-94.9186,4.0,5.674116671,175.9577692,7.56,'11111222,11111222,11111222' 
TABS,ioos:station:wmo:42043:1,2012-06-04T12:30:00Z,28.9818,-94.9186,4.0,5.008522736,172.8893999,6.34,'11111222,11111222,11111222' 
TABS,ioos:station:wmo:42043:1,2012-06-04T13:00:00Z,28.9818,-94.9186,4.0,4.974746225,166.6344205,6.44,'11111222,11111222,11111222' 
TABS,ioos:station:wmo:42043:1,2012-06-04T13:30:00Z,28.9818,-94.9186,4.0,5.209990403,172.0567572,6.49,'11111222,11111222,11111222' 
TABS,ioos:station:wmo:42043:1,2012-06-04T14:00:00Z,28.9818,-94.9186,4.0,4.877396847,165.8785265,6.09,'11111222,11111222,11111222' 
TABS,ioos:station:wmo:42043:1,2012-06-04T14:30:00Z,28.9818,-94.9186,4.0,3.613585477,170.120843,4.76,'11111222,11111222,11111222' 
TABS,ioos:station:wmo:42043:1,2012-06-04T15:00:00Z,28.9818,-94.9186,4.0,3.694996617,169.2376984,4.6,'11111222,11111222,11111222' 
TABS,ioos:station:wmo:42043:1,2012-06-04T15:30:00Z,28.9818,-94.9186,4.0,3.628332951,165.9639998,4.49,'11111222,11111222,11111222' 
TABS,ioos:station:wmo:42043:1,2012-06-04T16:00:00Z,28.9818,-94.9186,4.0,3.357647986,172.642389,4.25,'11111222,11111222,11111222' 
TABS,ioos:station:wmo:42043:1,2012-06-04T16:30:00Z,28.9818,-94.9186,4.0,2.752235455,171.2224136,3.95,'11111222,11111222,11111222' 
TABS,ioos:station:wmo:42043:1,2012-06-04T17:00:00Z,28.9818,-94.9186,4.0,2.193125623,157.7622297,2.93,'11111222,11111222,11111222' 
TABS,ioos:station:wmo:42043:1,2012-06-04T17:30:00Z,28.9818,-94.9186,4.0,3.104706105,151.9495003,4.42,'11111222,11111222,11111222' 
TABS,ioos:station:wmo:42043:1,2012-06-04T18:00:00Z,28.9818,-94.9186,4.0,3.578407467,150.3546978,4.75,'11111222,11111222,11111222' 
TABS,ioos:station:wmo:42043:1,2012-06-04T18:30:00Z,28.9818,-94.9186,4.0,4.05255475,154.5733957,4.85,'11111222,11111222,11111222' 